Location: College Park
(38.9810°N, 76.9370°W)
Time: 13:00:32
(UTC-05:00)

Tiangong 2 - Pass Details

Date: 15 February 2018
Orbit: 384 x 389 km, 42.8° (Epoch: 24 February)

Event Time Altitude Azimuth Distance (km) Brightness Sun altitude
Rises 18:25:10 0° 268° (W) 2,261 7.2 -8.4°
Reaches altitude 10° 18:27:17 10° 275° (W) 1,407 5.4 -8.8°
Maximum altitude 18:30:21 46° 350° (N) 525 1.7 -9.4°
Enters shadow 18:32:55 14° 63° (ENE) 1,205 3.0 -9.9°
